Chippewa, MI

12:17 AM EST on December 16, 2019 (GMT -0500)
Chippewa County International

Weather History for KCIU - October, 2019

Change the Weather History Date:

Friday, October 4, 2019

  Actual Average Record
Temperature  
Mean Temperature 40 °F -  
Max Temperature 50 °F 56 °F 77 °F (2005)
Min Temperature 35 °F 32 °F 24 °F (1980)
Degree Days  
Heating Degree Days 25    
Moisture  
Dew Point 37 °F    
Average Humidity 93    
Maximum Humidity 100    
Minimum Humidity 76    
Precipitation  
Precipitation 0.07 in - - ()
Sea Level Pressure  
Sea Level Pressure 30.36 in    
Wind  
Wind Speed 5 mph ()    
Max Wind Speed 9 mph    
Max Gust Speed -    
Visibility 9.6 miles    
Events Rain    
Averages and records for this station are not official NWS values.
T = Trace of Precipitation, MM = Missing Value Source: Averaged Metar Reports

Daily Weather History Graph

Daily Weather History Graph

Search for Another Location

Airport or City:

Astronomy

Oct. 04, 2019 Rise Set
Actual Time 7:40 AM EDT 7:12 PM EDT
Civil Twilight 7:10 AM EDT 7:42 PM EDT
Nautical Twilight 6:35 AM EDT 8:17 PM EDT
Astronomical Twilight 6:00 AM EDT 8:52 PM EDT
Moon 2:29 PM EDT (10/4) 11:21 PM EDT (10/4)
Length of Visible Light 12h 32m
Length of Day
11h 32m
Waxing Crescent, 39% of the Moon is Illuminated
Oct 4
Waxing Crescent
Oct 5
First Quarter
Oct 13
Full
Oct 21
Last Quarter
Oct 27
New

Hourly Weather History & Observations

Time (EDT) Temp. Windchill Dew Point Humidity Pressure Visibility Wind Dir Wind Speed Gust Speed Precip Events Conditions
12:09 AM 42.8 °F 40.1 °F 42.8 °F 100% 30.18 in 5.0 mi North 4.6 mph - 0.01 in Rain Light Rain
12:17 AM 42.8 °F 38.6 °F 42.8 °F 100% 30.18 in 5.0 mi North 6.9 mph - 0.01 in Rain Light Rain
12:56 AM 43.0 °F 38.2 °F 42.1 °F 97% 30.20 in 10.0 mi NE 8.1 mph - 0.01 in   Overcast
1:33 AM 42.8 °F 39.3 °F 41.0 °F 93% 30.21 in 10.0 mi NNE 5.8 mph - N/A   Overcast
1:56 AM 41.0 °F 37.1 °F 39.9 °F 96% 30.24 in 10.0 mi NNE 5.8 mph - 0.02 in   Scattered Clouds
2:56 AM 39.9 °F 34.5 °F 37.9 °F 93% 30.28 in 10.0 mi North 8.1 mph - 0.02 in   Partly Cloudy
3:30 AM 39.2 °F 33.6 °F 37.4 °F 93% 30.28 in 10.0 mi NNE 8.1 mph - 0.02 in   Mostly Cloudy
3:56 AM 39.0 °F 33.4 °F 37.0 °F 93% 30.32 in 10.0 mi North 8.1 mph - 0.02 in   Overcast
4:17 AM 37.4 °F 33.8 °F 35.6 °F 93% 30.31 in 10.0 mi North 4.6 mph - N/A   Scattered Clouds
4:56 AM 36.0 °F 33.3 °F 35.1 °F 97% 30.35 in 10.0 mi NNW 3.5 mph - N/A   Clear
5:56 AM 35.1 °F 31.0 °F 34.0 °F 96% 30.39 in 10.0 mi North 4.6 mph - N/A   Clear
6:56 AM 36.0 °F 31.1 °F 34.0 °F 93% 30.42 in 10.0 mi North 5.8 mph - N/A   Clear
7:27 AM 37.4 °F 32.1 °F 35.6 °F 93% 30.41 in 10.0 mi North 6.9 mph - N/A   Mostly Cloudy
7:56 AM 37.9 °F 32.1 °F 35.1 °F 89% 30.44 in 10.0 mi NNE 8.1 mph - N/A   Overcast
8:56 AM 37.9 °F 32.7 °F 35.1 °F 89% 30.45 in 10.0 mi NE 6.9 mph - N/A   Overcast
9:56 AM 41.0 °F 36.4 °F 37.0 °F 86% 30.47 in 10.0 mi NE 6.9 mph - N/A   Mostly Cloudy
10:56 AM 42.1 °F 37.1 °F 36.0 °F 79% 30.49 in 10.0 mi ENE 8.1 mph - N/A   Overcast
6:56 PM 45.0 °F 40.1 °F 37.9 °F 76% 30.46 in 10.0 mi North 9.2 mph - N/A   Clear
7:56 PM 41.0 °F 36.4 °F 37.9 °F 89% 30.46 in 10.0 mi NNW 6.9 mph - N/A   Clear
8:56 PM 39.0 °F - 37.0 °F 93% 30.45 in 10.0 mi Calm Calm - N/A   Clear
9:56 PM 36.0 °F - 36.0 °F 100% 30.45 in 10.0 mi Calm Calm - N/A   Clear
10:56 PM 36.0 °F - 35.1 °F 97% 30.45 in 10.0 mi Calm Calm - N/A   Clear
11:56 PM 36.0 °F - 34.0 °F 93% 30.45 in 10.0 mi Calm Calm - N/A   Clear